Weather History for Horseshoe Bay, TX

Change the Weather History Date:

Monday, March 25, 2013

  Actual Average (KBMQ) Record (KBMQ)
Temperature  
Mean Temperature 45 °F -  
Max Temperature 57 °F 68 °F 84 °F (2011)
Min Temperature 33 °F 48 °F 34 °F (2013)
Degree Days  
Heating Degree Days 20    
Moisture  
Dew Point 19 °F    
Average Humidity 38    
Maximum Humidity 70    
Minimum Humidity 18    
Precipitation  
Precipitation 0.00 in - - ()
Sea Level Pressure  
Sea Level Pressure 30.29 in    
Wind  
Wind Speed 4 mph (NE)    
Max Wind Speed 8 mph    
Max Gust Speed -    
Visibility 10 miles    
Events      
Averages and records for this station are not official NWS values.
T = Trace of Precipitation, MM = Missing Value Source: NWS Daily Summary

Daily Weather History Graph

Daily Weather History Graph

Search for Another Location

Airport:

Trip Planner

Search our weather history database for the weather conditions in past years. The results will help you decide how hot, cold, wet, or windy it might be!

Date:

Astronomy

Mar. 25, 2013 Rise Set
Actual Time 6:30 AM MDT 6:48 PM MDT
Civil Twilight 6:06 AM MDT 7:12 PM MDT
Nautical Twilight 5:38 AM MDT 7:40 PM MDT
Astronomical Twilight 5:10 AM MDT 8:08 PM MDT
Moon 5:24 PM MDT (3/25) 5:09 AM MDT (3/25)
Length of Visible Light 13h 05m
Length of Day
12h 17m
Waxing Gibbous, 97% of the Moon is Illuminated
Mar 25
Waxing Gibbous
Mar 27
Full
Apr 2
Last Quarter
Apr 10
New
Apr 18
First Quarter

Hourly Weather History & Observations

Time (MDT) Temp. Windchill Dew Point Humidity Pressure Visibility Wind Dir Wind Speed Gust Speed Precip Events Conditions
12:15 AM 39.2 °F 35.9 °F 24.8 °F 56% 30.17 in 10.0 mi ENE 4.6 mph - N/A   Clear
12:55 AM 41.0 °F 39.0 °F 23.0 °F 49% 30.17 in 10.0 mi ENE 3.5 mph - N/A   Clear
1:15 AM 39.2 °F 35.0 °F 23.0 °F 52% 30.18 in 10.0 mi ENE 5.8 mph - N/A   Clear
1:35 AM 39.2 °F - 23.0 °F 52% 30.18 in 10.0 mi Calm Calm - N/A   Clear
1:55 AM 37.4 °F 34.9 °F 23.0 °F 56% 30.19 in 10.0 mi ENE 3.5 mph - N/A   Clear
2:15 AM 37.4 °F 34.9 °F 23.0 °F 56% 30.20 in 10.0 mi ENE 3.5 mph - N/A   Clear
2:35 AM 37.4 °F 33.8 °F 21.2 °F 52% 30.20 in 10.0 mi NE 4.6 mph - N/A   Clear
2:55 AM 37.4 °F 34.9 °F 21.2 °F 52% 30.20 in 10.0 mi NE 3.5 mph - N/A   Clear
3:15 AM 37.4 °F - 21.2 °F 52% 30.20 in 10.0 mi Calm Calm - N/A   Clear
3:35 AM 35.6 °F - 21.2 °F 56% 30.21 in 10.0 mi Calm Calm - N/A   Clear
3:55 AM 37.4 °F 33.8 °F 19.4 °F 48% 30.22 in 10.0 mi NNE 4.6 mph - N/A   Clear
4:15 AM 37.4 °F 34.9 °F 19.4 °F 48% 30.23 in 10.0 mi NNE 3.5 mph - N/A   Clear
4:35 AM 35.6 °F 31.7 °F 19.4 °F 52% 30.24 in 10.0 mi NNE 4.6 mph - N/A   Clear
4:55 AM 35.6 °F 32.8 °F 19.4 °F 52% 30.26 in 10.0 mi NNE 3.5 mph - N/A   Clear
5:15 AM 35.6 °F 30.7 °F 19.4 °F 52% 30.27 in 10.0 mi NE 5.8 mph - N/A   Clear
5:35 AM 35.6 °F 30.7 °F 19.4 °F 52% 30.28 in 10.0 mi NE 5.8 mph - N/A   Clear
5:55 AM 33.8 °F 30.8 °F 19.4 °F 56% 30.29 in 10.0 mi NNE 3.5 mph - N/A   Clear
6:15 AM 33.8 °F 28.6 °F 19.4 °F 56% 30.30 in 10.0 mi NNE 5.8 mph - N/A   Clear
6:35 AM 33.8 °F 28.6 °F 19.4 °F 56% 30.31 in 10.0 mi NNE 5.8 mph - N/A   Clear
6:55 AM 33.8 °F 30.8 °F 19.4 °F 56% 30.32 in 10.0 mi NNE 3.5 mph - N/A   Clear
7:15 AM 35.6 °F 31.7 °F 19.4 °F 52% 30.32 in 10.0 mi NNE 4.6 mph - N/A   Clear
7:55 AM 37.4 °F 31.4 °F 17.6 °F 45% 30.34 in 10.0 mi NNE 8.1 mph - N/A   Clear
8:15 AM 39.2 °F 34.2 °F 17.6 °F 42% 30.35 in 10.0 mi NNE 6.9 mph - N/A   Clear
8:35 AM 41.0 °F 38.0 °F 17.6 °F 39% 30.36 in 10.0 mi NE 4.6 mph - N/A   Clear
8:55 AM 42.8 °F 38.0 °F 17.6 °F 36% 30.36 in 10.0 mi NE 8.1 mph - N/A   Clear
9:15 AM 42.8 °F 38.0 °F 15.8 °F 34% 30.37 in 10.0 mi NE 8.1 mph - N/A   Clear
9:35 AM 44.6 °F 41.4 °F 15.8 °F 31% 30.37 in 10.0 mi NE 5.8 mph - N/A   Clear
9:55 AM 44.6 °F 40.7 °F 15.8 °F 31% 30.37 in 10.0 mi NE 6.9 mph - N/A   Clear
10:15 AM 46.4 °F 42.4 °F 14.0 °F 27% 30.37 in 10.0 mi ENE 8.1 mph - N/A   Clear
10:35 AM 46.4 °F 42.4 °F 14.0 °F 27% 30.37 in 10.0 mi ENE 8.1 mph - N/A   Clear
10:55 AM 48.2 °F - 14.0 °F 25% 30.36 in 10.0 mi ENE 6.9 mph - N/A   Clear
11:15 AM 50.0 °F - 15.8 °F 26% 30.35 in 10.0 mi East 8.1 mph - N/A   Clear
11:35 AM 50.0 °F - 14.0 °F 24% 30.35 in 10.0 mi ENE 5.8 mph - N/A   Clear
11:55 AM 51.8 °F - 14.0 °F 22% 30.34 in 10.0 mi ENE 6.9 mph - N/A   Clear
12:15 PM 51.8 °F - 14.0 °F 22% 30.33 in 10.0 mi NNE 4.6 mph - N/A   Clear
12:35 PM 51.8 °F - 14.0 °F 22% 30.32 in 10.0 mi East 5.8 mph - N/A   Clear
12:55 PM 53.6 °F - 17.6 °F 24% 30.31 in 10.0 mi ENE 6.9 mph - N/A   Clear
1:15 PM 53.6 °F - 15.8 °F 22% 30.30 in 10.0 mi NE 4.6 mph - N/A   Clear
1:35 PM 53.6 °F - 15.8 °F 22% 30.29 in 10.0 mi Calm Calm - N/A   Clear
1:55 PM 55.4 °F - 17.6 °F 23% 30.29 in 10.0 mi NNE 5.8 mph - N/A   Clear
2:15 PM 55.4 °F - 15.8 °F 21% 30.27 in 10.0 mi North 5.8 mph - N/A   Clear
2:35 PM 55.4 °F - 15.8 °F 21% 30.27 in 10.0 mi North 4.6 mph - N/A   Clear
2:55 PM 55.4 °F - 14.0 °F 20% 30.26 in 10.0 mi North 4.6 mph - N/A   Clear
3:15 PM 55.4 °F - 14.0 °F 20% 30.26 in 10.0 mi Calm Calm - N/A   Clear
3:35 PM 55.4 °F - 14.0 °F 20% 30.25 in 10.0 mi NE 4.6 mph - N/A   Clear
3:55 PM 55.4 °F - 15.8 °F 21% 30.25 in 10.0 mi Calm Calm - N/A   Clear
4:15 PM 57.2 °F - 14.0 °F 18% 30.25 in 10.0 mi NNW 3.5 mph - N/A   Clear
4:35 PM 55.4 °F - 14.0 °F 20% 30.25 in 10.0 mi Calm Calm - N/A   Clear
4:55 PM 57.2 °F - 17.6 °F 21% 30.24 in 10.0 mi ENE 6.9 mph - N/A   Clear
5:15 PM 55.4 °F - 15.8 °F 21% 30.25 in 10.0 mi NW 5.8 mph - N/A   Clear
5:35 PM 55.4 °F - 17.6 °F 23% 30.25 in 10.0 mi Calm Calm - N/A   Clear
5:55 PM 55.4 °F - 15.8 °F 21% 30.25 in 10.0 mi Calm Calm - N/A   Clear
6:15 PM 55.4 °F - 17.6 °F 23% 30.26 in 10.0 mi NE 3.5 mph - N/A   Clear
6:35 PM 53.6 °F - 17.6 °F 24% 30.27 in 10.0 mi NE 4.6 mph - N/A   Clear
6:55 PM 51.8 °F - 19.4 °F 28% 30.27 in 10.0 mi ENE 3.5 mph - N/A   Clear
7:15 PM 50.0 °F - 19.4 °F 30% 30.29 in 10.0 mi NE 3.5 mph - N/A   Clear
7:35 PM 46.4 °F - 21.2 °F 37% 30.30 in 10.0 mi Calm Calm - N/A   Clear
7:55 PM 44.6 °F - 21.2 °F 39% 30.30 in 10.0 mi Calm Calm - N/A   Clear
8:15 PM 44.6 °F 43.1 °F 23.0 °F 43% 30.31 in 10.0 mi East 3.5 mph - N/A   Clear
8:35 PM 44.6 °F - 19.4 °F 37% 30.32 in 10.0 mi Calm Calm - N/A   Clear
8:55 PM 44.6 °F 43.1 °F 21.2 °F 39% 30.33 in 10.0 mi East 3.5 mph - N/A   Clear
9:15 PM 44.6 °F 43.1 °F 19.4 °F 37% 30.34 in 10.0 mi East 3.5 mph - N/A   Clear
9:35 PM 44.6 °F 43.1 °F 19.4 °F 37% 30.35 in 10.0 mi East 3.5 mph - N/A   Clear
9:55 PM 44.6 °F - 19.4 °F 37% 30.36 in 10.0 mi Calm Calm - N/A   Clear
10:15 PM 42.8 °F 40.1 °F 21.2 °F 42% 30.37 in 10.0 mi East 4.6 mph - N/A   Clear
10:35 PM 42.8 °F 40.1 °F 21.2 °F 42% 30.38 in 10.0 mi East 4.6 mph - N/A   Clear
10:55 PM 41.0 °F 39.0 °F 21.2 °F 45% 30.39 in 10.0 mi East 3.5 mph - N/A   Clear
11:15 PM 37.4 °F 34.9 °F 26.6 °F 65% 30.39 in 10.0 mi East 3.5 mph - N/A   Clear
11:35 PM 35.6 °F 32.8 °F 24.8 °F 65% 30.39 in 10.0 mi East 3.5 mph - N/A   Clear
11:55 PM 35.6 °F - 26.6 °F 70% 30.39 in 10.0 mi Calm Calm - N/A   Clear